Location: Newark
(45.5000°N, 11.4167°E)
Time: 02:20:09
(UTC+00:00)

A-11 Canister half - Pass Details

Date: 19 August 2019
Orbit: 1514 x 1686 km, 47.2° (Epoch: 15 September)

Event Time Altitude Azimuth Distance (km) Brightness Sun altitude
Rises 19:10:22 0° 249° (WSW) 4,704 12.2 -9.5°
Reaches altitude 10° 19:13:22 10° 249° (WSW) 3,741 11.6 -10.0°
Maximum altitude 19:22:55 87° 162° (SSE) 1,606 9.1 -11.4°
Drops below altitude 10° 19:32:52 10° 75° (ENE) 3,886 10.7 -12.9°
Sets 19:36:03 0° 75° (ENE) 4,894 11.3 -13.4°
